Theta_e
314 316 319 319 319 317 321 325 323 326 324 322 323 325 327 333 332 326 333 335 331 332 334 334 330 337 331 328 330 332 332 334 336 334 331 332 332 332 332 333 333 333 334 335 335 334 333 331 330
315 317 321 313 319 321 319 319 324 325 325 326 321 327 332 337 333 333 333 334 331 332 331 333 330 336 330 330 327 331 330 334 334 332 331 330 330 330 331 331 331 331 332 333 334 332 330 330 327
316 317 317 318 317 321 320 322 324 322 321 321 324 324 332 336 332 333 334 334 333 330 327 328 331 333 329 332 328 328 329 332 332 331 329 330 329 328 328 329 329 330 330 331 332 331 328 327 326
316 315 313 318 322 320 318 323 322 319 318 322 325 330 330 332 334 334 334 333 333 329 326 326 329 334 329 332 329 327 329 331 331 331 328 328 328 329 328 328 328 329 329 331 332 330 327 326 326
315 312 318 319 319 318 316 321 318 321 319 320 322 332 334 332 333 335 334 332 332 328 324 325 326 332 329 332 331 330 327 327 327 330 329 329 328 328 328 328 328 328 327 328 329 329 327 326 325
313 311 318 322 318 315 321 320 319 319 319 324 329 331 333 332 335 334 333 331 332 327 323 324 325 326 330 331 333 331 329 325 321 323 326 329 329 325 327 327 328 327 328 328 329 327 325 324 323
314 314 317 316 317 317 322 317 317 317 318 323 326 332 331 333 336 335 334 332 331 327 321 323 325 325 329 331 333 332 331 327 323 319 321 327 328 326 323 325 326 327 328 330 329 326 325 325 324
314 314 316 316 317 318 315 317 316 315 316 317 327 332 334 330 335 336 336 335 330 328 321 322 326 328 328 326 332 334 332 330 325 322 318 323 326 326 321 317 319 326 324 325 327 325 323 323 323
312 316 316 317 316 316 313 315 313 312 313 317 319 328 329 332 334 336 336 335 332 329 324 322 325 327 328 325 326 333 334 331 328 325 322 318 320 321 320 318 318 315 320 323 324 323 322 323 323
314 316 316 314 314 315 314 314 312 315 317 324 330 328 329 332 335 335 335 335 334 333 327 323 323 324 326 325 324 331 332 332 330 327 324 323 322 321 320 320 317 315 317 321 320 318 318 320 322
312 315 315 314 313 313 314 314 311 312 314 320 327 329 328 331 335 335 336 334 334 334 330 325 323 323 323 324 324 324 330 330 329 328 327 326 326 324 321 319 317 314 314 318 318 319 320 318 321
314 313 313 313 313 312 313 312 311 311 312 311 325 330 329 330 332 335 335 335 336 335 331 329 324 323 324 323 323 322 322 327 328 328 328 328 327 327 324 319 317 314 313 314 316 316 317 319 320
314 314 312 312 313 313 311 313 312 311 311 318 328 330 330 329 330 333 335 336 336 336 333 331 329 326 324 324 324 324 322 322 327 327 329 329 328 327 326 323 318 315 315 314 313 314 316 315 316
312 313 311 311 312 312 313 313 311 310 310 328 330 330 329 330 329 329 332 335 336 336 336 334 333 331 329 329 326 324 324 323 325 327 328 329 329 328 328 325 323 321 319 321 320 317 317 315 316
311 313 311 311 311 313 311 313 312 310 311 327 330 329 329 329 330 330 331 334 336 336 336 336 335 334 332 332 331 331 327 326 325 327 329 329 329 329 329 327 326 324 322 321 321 320 317 317 317
312 310 312 311 310 311 312 314 313 308 313 323 326 325 326 326 329 331 331 331 334 336 336 336 336 335 334 333 333 332 331 331 330 329 329 328 328 329 330 328 327 325 324 322 321 320 318 317 317
316 312 310 311 309 310 312 313 311 307 311 314 320 323 325 326 326 331 332 332 332 334 335 336 336 335 334 334 333 332 331 330 329 329 329 328 328 328 328 328 328 327 325 323 321 320 318 317 317
325 314 309 310 310 310 310 311 309 307 306 310 313 315 318 321 325 328 331 333 333 333 333 334 335 336 335 334 333 333 332 330 330 330 330 329 329 328 327 327 327 327 326 324 322 321 320 319 317
311 310 310 309 309 310 308 311 311 308 305 306 305 305 305 309 317 322 327 330 331 332 333 333 334 335 336 335 334 333 333 330 330 331 331 330 330 329 328 327 326 326 326 325 324 324 323 322 320
310 310 309 309 309 309 309 309 307 307 306 305 306 304 303 303 303 306 314 322 327 328 330 332 333 334 335 335 334 334 333 331 329 328 329 330 331 331 330 328 327 327 326 326 325 324 322 322 320
311 310 308 310 309 308 308 309 307 307 306 306 305 303 303 304 303 302 305 310 317 324 326 329 331 334 335 335 334 333 332 331 330 329 327 328 329 330 329 329 328 328 328 327 326 325 323 322 322
314 308 309 309 309 310 306 312 305 304 306 306 307 304 305 303 303 302 304 307 312 320 325 328 331 333 334 334 334 333 332 331 331 329 326 327 326 327 328 328 328 328 328 329 328 328 326 323 321
311 308 310 309 308 307 307 305 306 302 304 304 304 305 306 302 302 302 303 306 309 315 320 324 328 331 333 333 333 333 332 332 332 329 327 327 326 325 327 328 328 329 328 328 328 328 327 326 322
307 309 307 306 305 308 306 305 305 302 304 305 303 302 303 301 302 301 305 307 309 310 311 311 312 314 321 331 332 332 332 332 331 329 329 328 325 324 326 327 327 327 328 327 327 327 326 325 322
307 310 309 310 309 310 303 303 309 304 302 304 304 303 300 300 303 303 305 308 310 311 312 312 312 311 310 309 323 331 332 332 332 328 328 327 324 323 325 327 327 327 327 326 326 325 325 324 322
308 307 310 310 309 306 304 306 306 304 304 301 302 304 303 303 304 304 306 308 309 311 314 315 313 312 311 310 308 315 330 331 331 330 326 324 323 323 327 327 327 327 326 325 325 324 323 321 320
307 310 306 308 303 310 306 304 304 304 303 306 305 304 304 304 303 304 305 307 308 311 315 317 316 312 309 313 312 310 324 329 330 329 325 325 325 326 327 326 326 325 324 324 323 321 318 319 317
306 306 309 308 310 309 306 305 305 305 306 305 307 305 304 304 304 304 304 306 308 310 314 316 316 314 315 318 320 320 322 327 328 326 323 323 322 322 323 323 321 319 320 320 318 317 312 311 308
305 307 306 307 310 311 308 306 302 305 305 305 307 306 305 304 304 303 304 306 307 309 312 314 314 314 315 317 319 321 323 323 323 320 320 319 319 320 319 318 315 313 312 309 307 305 303 301 299
306 306 307 309 308 306 308 308 303 302 305 303 306 306 304 304 303 302 303 304 305 307 309 310 311 312 312 314 316 317 318 317 316 315 317 315 314 312 311 309 306 304 301 299 298 297 295 295 294
Wind_Speed
9 9 6 4 4 5 1 1 0 3 3 1 3 6 7 4 3 2 7 13 22 20 17 12 13 14 13 15 17 15 16 16 16 17 17 17 18 18 17 17 17 17 17 19 19 19 19 20 19
9 6 5 2 4 3 4 3 4 1 6 8 7 4 6 3 3 6 15 20 22 21 19 16 14 15 14 15 16 14 15 16 17 15 17 17 17 18 17 16 16 15 15 15 16 17 17 17 17
4 6 3 4 3 2 3 3 4 3 6 1 5 5 4 2 2 15 9 27 24 21 19 18 16 16 15 15 15 15 15 15 16 16 16 16 17 16 16 16 14 14 13 13 15 15 17 17 16
3 6 4 4 2 3 4 5 5 7 4 5 5 6 3 2 15 8 25 27 23 21 20 19 19 18 16 15 15 15 14 15 15 15 15 15 15 15 15 14 14 13 13 13 14 15 18 15 14
7 3 4 2 2 3 3 3 2 5 3 3 2 3 3 5 5 18 27 26 23 21 20 20 20 18 16 15 14 14 14 13 14 15 15 14 14 14 14 13 13 13 13 14 14 15 16 15 13
4 3 4 2 3 4 2 1 2 1 4 4 6 4 3 9 20 28 26 26 22 22 20 20 19 18 18 16 14 13 12 12 12 13 13 14 12 12 13 13 13 12 13 14 14 15 15 14 13
5 4 4 3 2 1 4 5 3 5 5 3 10 5 1 11 23 27 25 24 23 21 21 21 20 19 18 17 15 13 11 11 11 12 13 14 12 10 10 12 12 12 12 13 14 14 13 11 11
4 4 4 4 3 3 4 5 4 5 0 3 4 6 5 11 27 27 24 23 22 20 20 21 20 19 18 18 17 14 12 11 10 11 11 11 10 8 8 9 10 12 12 13 14 12 12 12 10
4 3 3 6 6 4 4 4 2 2 6 0 2 7 5 32 30 27 25 21 21 20 21 22 22 20 18 17 17 16 14 11 10 10 9 9 9 7 7 8 8 9 11 12 11 10 9 8 7
4 4 8 6 4 4 4 4 7 4 4 1 1 4 27 34 31 24 22 21 21 21 22 22 22 21 20 18 17 17 16 13 11 9 9 8 8 6 6 6 6 7 8 10 9 8 6 5 4
4 5 4 3 4 5 5 5 3 8 4 6 9 10 21 26 24 24 22 23 24 26 26 24 23 21 21 20 18 17 16 15 13 11 10 8 7 5 4 4 5 5 7 7 7 5 3 2 2
5 5 5 4 2 3 6 7 6 6 7 7 11 22 22 18 22 23 23 22 24 27 27 26 23 22 21 19 19 17 17 16 15 14 12 9 8 6 3 3 4 4 5 5 5 2 0 1 1
4 2 5 4 2 2 6 4 6 6 1 6 12 13 17 20 22 23 27 28 29 29 28 28 25 24 22 21 19 18 18 17 16 15 14 10 9 6 4 4 4 5 6 5 5 3 3 2 3
6 5 2 5 4 2 4 2 4 6 5 8 13 12 13 19 24 21 27 30 32 31 30 28 27 25 24 22 21 20 18 16 16 16 16 13 10 9 7 7 6 6 6 5 5 4 5 5 5
2 6 3 2 2 2 5 1 7 2 8 11 11 10 8 13 20 27 33 34 36 34 31 30 30 27 26 24 21 19 18 17 17 16 15 16 13 12 11 10 10 8 7 7 7 7 7 7 7
2 3 5 1 4 2 6 8 7 5 9 11 10 8 8 9 21 27 30 34 37 35 34 32 31 30 29 27 24 22 19 18 17 16 15 14 15 15 14 14 12 10 10 9 9 9 9 10 10
3 4 3 3 3 2 4 7 5 7 6 9 10 11 11 10 14 29 33 34 34 36 35 35 35 34 32 30 27 25 21 22 20 19 19 17 17 16 15 16 14 13 12 12 11 11 11 12 13
8 4 3 6 3 2 5 7 5 4 8 10 8 10 10 11 17 29 35 34 35 35 35 36 37 37 35 34 31 29 23 25 24 23 22 20 19 18 17 16 15 15 14 14 14 13 13 15 16
7 8 4 5 5 3 7 7 11 4 4 7 8 8 9 12 20 23 31 35 35 35 35 36 38 38 37 36 33 30 27 25 27 27 24 22 21 20 20 18 17 17 17 16 15 14 15 16 16
3 5 7 2 2 4 1 10 9 3 7 9 10 8 12 6 8 17 29 32 35 37 36 37 38 38 38 37 36 32 31 29 27 25 27 27 26 24 23 22 20 20 20 20 19 19 19 16 13
4 5 4 3 2 3 2 6 7 5 6 5 7 9 7 11 10 10 17 27 28 35 35 38 37 39 37 37 35 32 26 26 25 24 24 26 25 25 26 25 25 25 24 24 23 22 23 21 15
10 6 4 4 4 4 2 9 6 7 9 7 13 9 13 11 7 6 12 20 24 25 28 33 34 36 35 34 35 34 28 23 28 27 24 23 22 24 25 26 25 25 25 26 26 26 26 24 22
5 5 6 3 3 2 2 1 7 1 7 9 15 14 17 10 9 9 13 20 20 19 21 24 26 29 31 31 34 35 30 29 25 23 22 20 18 20 22 24 24 24 23 23 22 21 24 23 23
7 5 4 3 3 3 7 7 5 6 8 6 7 12 12 10 8 8 12 15 16 16 15 16 18 19 22 28 32 35 35 33 26 21 18 19 17 17 18 19 19 19 19 19 18 18 18 17 18
8 11 2 1 2 6 1 4 13 6 7 6 8 9 8 8 8 8 9 16 15 16 14 14 16 19 21 22 25 31 33 31 29 24 19 16 16 18 16 16 16 16 15 14 14 13 13 12 12
8 7 5 7 5 2 2 7 6 8 3 7 7 4 4 6 6 7 8 11 10 9 10 10 12 14 17 21 25 25 27 27 26 22 18 18 15 16 15 12 12 12 12 9 9 10 9 6 4
5 9 4 6 2 3 4 6 9 6 9 7 7 5 8 8 8 8 10 10 9 8 8 9 9 9 12 12 15 19 23 24 23 20 16 13 11 8 9 9 10 11 9 9 7 5 5 5 2
8 10 4 2 4 3 3 5 5 4 12 9 8 9 7 6 7 7 10 12 11 10 10 10 10 10 11 11 12 15 20 22 20 18 15 11 10 8 8 9 7 9 10 8 7 5 3 1 0
3 3 2 4 4 5 1 6 8 15 7 9 9 8 9 8 7 7 10 12 12 11 11 11 11 12 12 13 14 15 17 19 21 19 14 11 11 12 11 10 10 9 8 7 6 6 4 3 3
1 7 10 6 8 1 3 9 2 7 5 7 7 7 6 6 7 6 11 14 13 13 12 12 12 13 13 15 16 18 19 20 20 19 16 12 12 12 12 12 11 10 10 10 8 8 7 5 5
Wind_Direction
341 345 3 34 48 61 17 262 311 138 71 349 102 131 130 74 111 199 154 158 155 150 151 138 138 130 110 102 111 106 99 99 98 91 85 87 88 93 95 93 94 95 91 90 85 83 88 90 87
346 358 52 80 81 52 288 274 154 241 138 144 96 85 55 90 107 139 142 159 155 149 150 143 136 134 116 107 110 111 111 103 99 95 95 90 92 93 97 102 98 102 99 97 88 86 94 95 89
8 32 74 88 100 154 217 232 166 102 157 234 92 62 114 136 86 157 167 160 156 153 152 143 139 136 124 117 108 114 112 109 100 96 96 93 91 92 93 96 101 106 109 108 94 93 101 97 90
41 21 42 82 191 250 207 191 186 141 169 53 118 65 50 335 144 185 159 160 158 156 154 149 145 143 134 131 118 113 114 112 112 103 98 95 96 96 96 97 98 98 101 101 100 100 109 103 95
45 49 62 44 283 270 246 180 220 121 101 77 74 159 65 114 183 160 161 164 163 159 157 156 153 150 143 139 131 121 117 115 113 117 112 107 104 100 97 97 96 97 99 106 107 104 109 109 103
46 91 74 230 258 298 105 191 172 113 133 148 83 104 124 145 152 157 166 169 168 162 162 160 160 157 155 150 146 134 122 120 117 118 116 110 110 101 106 103 100 100 100 106 108 106 104 105 96
109 89 192 178 248 303 178 142 172 162 138 164 145 103 104 150 163 162 168 171 168 168 165 165 164 160 161 160 157 150 136 130 126 122 126 124 125 110 99 111 108 104 105 106 114 111 105 105 105
111 98 131 197 197 247 174 161 156 147 59 86 146 162 186 180 166 164 166 170 169 173 171 168 168 167 165 167 167 164 157 146 138 130 126 136 132 122 102 110 114 118 123 125 127 122 113 109 109
129 84 195 204 156 240 164 148 180 84 125 343 117 151 177 160 164 161 160 165 172 179 180 174 174 176 174 171 172 172 170 161 150 138 133 135 144 134 113 113 109 113 132 135 135 131 127 120 102
125 146 211 192 193 216 196 164 171 128 138 65 76 52 137 153 159 157 164 171 176 184 189 183 181 181 180 178 177 178 177 172 166 156 145 137 138 136 129 123 124 122 125 143 144 143 140 149 117
171 188 184 241 221 206 191 172 184 133 233 207 183 149 146 154 167 166 174 180 182 189 191 190 187 186 186 185 184 186 188 182 179 174 162 158 155 150 144 149 145 144 144 156 155 145 135 152 172
125 237 193 200 202 135 187 139 177 183 218 184 175 161 154 166 174 176 177 181 187 194 196 197 192 194 194 194 193 192 195 195 191 187 184 183 182 177 174 173 174 169 174 177 176 173 143 192 198
157 260 198 259 116 187 150 198 185 215 136 120 128 162 168 173 181 187 187 192 194 195 199 202 198 200 200 201 201 202 203 203 200 200 201 202 201 200 206 199 197 194 188 193 206 236 270 269 257
192 184 244 274 126 124 185 176 141 228 130 135 150 179 181 186 182 181 190 195 199 201 201 203 204 205 206 206 208 210 211 211 209 208 211 215 217 228 231 223 215 209 210 222 232 247 259 267 270
111 169 312 212 257 183 131 309 233 213 150 162 174 184 196 202 187 190 196 199 204 207 206 206 208 208 209 213 212 213 216 217 218 218 216 226 233 234 244 243 237 234 236 238 239 255 263 269 273
178 92 192 289 173 109 126 242 247 192 154 175 188 188 203 216 209 204 205 207 209 210 210 211 212 211 214 213 215 218 217 219 223 222 221 230 238 242 246 244 245 243 243 248 251 257 267 273 276
315 200 159 314 221 128 160 235 245 178 198 196 195 201 204 222 226 216 213 214 214 213 214 215 215 215 216 217 219 219 223 226 229 231 233 234 236 240 247 251 250 248 250 251 253 258 264 272 276
213 239 198 183 209 277 186 243 278 197 184 214 211 210 208 216 224 220 216 217 219 219 219 220 220 220 218 221 222 222 231 231 231 233 233 237 239 243 246 248 250 249 247 251 254 258 266 275 279
184 199 210 198 148 214 218 237 242 192 207 236 229 232 234 225 238 227 221 220 221 222 223 223 221 222 219 218 221 223 225 231 234 237 238 238 237 239 244 249 249 248 250 257 262 264 268 272 274
243 195 199 339 85 150 115 260 266 230 226 211 212 231 232 232 244 236 229 224 223 223 221 224 224 222 221 221 224 223 225 230 232 240 245 245 246 244 242 241 245 247 248 249 248 248 253 263 274
213 203 177 154 143 109 85 277 252 240 241 225 233 225 233 230 236 242 225 222 221 222 220 220 222 223 223 222 222 222 226 229 230 230 241 244 247 247 246 246 247 249 250 251 253 253 252 256 263
225 199 171 139 129 199 142 254 256 235 238 226 237 231 233 225 227 247 220 217 216 217 221 220 221 223 224 222 222 221 214 210 227 231 239 241 247 249 249 248 249 251 255 255 256 258 258 255 256
203 177 190 172 143 111 168 260 265 316 247 242 242 232 231 217 199 224 210 210 206 203 205 209 215 222 227 226 226 226 220 227 237 237 240 245 249 255 253 252 254 254 257 263 265 266 259 262 252
155 80 43 63 95 264 199 182 243 202 208 240 243 236 216 196 192 196 192 175 178 183 187 199 201 209 218 223 224 227 228 229 229 235 236 238 245 257 253 251 254 256 259 262 265 265 265 268 264
170 143 171 237 181 223 79 157 241 257 242 227 252 259 218 176 168 172 171 171 178 178 185 201 215 219 220 224 225 226 229 232 232 240 234 234 251 248 246 244 244 248 253 258 262 261 262 262 263
192 159 167 188 191 189 90 224 248 233 273 255 271 273 149 155 165 167 167 169 176 181 187 194 209 219 224 226 227 224 226 229 231 231 228 235 240 244 240 234 237 240 243 242 248 250 247 246 222
186 193 159 101 12 82 203 286 297 249 265 257 241 188 190 180 177 167 162 167 169 173 187 196 196 202 209 219 220 217 213 216 219 219 212 210 198 208 224 219 226 220 211 211 206 196 175 177 218
181 161 180 22 132 232 280 278 236 266 236 221 218 204 193 184 171 166 169 169 168 175 180 181 187 179 182 186 185 190 199 202 203 198 187 188 175 184 192 183 175 160 163 158 166 165 167 170 55
136 186 111 126 156 183 194 253 218 228 215 217 217 205 190 183 176 173 173 173 168 170 174 178 178 174 170 176 169 164 164 169 168 169 184 194 184 173 171 170 163 156 148 141 145 132 117 106 87
332 182 180 183 222 239 147 255 239 236 226 215 206 191 180 170 183 175 172 170 168 174 174 174 165 162 166 167 162 161 162 163 164 157 159 175 174 164 158 153 148 137 131 123 116 106 96 83 58